{"data":{"norad_id":62276,"intl_designator":"2024-237K","name":"STARLINK-11498 [DTC]","alt_names":[],"object_type":"PAYLOAD","status":"ACTIVE","operator":null,"country":"US","launch_date":"2024-12-08","launch_site_code":"AFETR","launch_vehicle":null,"mission":null,"orbit_class":"UNKNOWN","rcs_meters":null,"size_class":null,"mass_kg":null,"dimensions":null,"purposes":["comms"],"wikipedia_slug":null,"has_3d_model":false,"image_url":null,"decayed_at":null,"tle_current":{"epoch":"2026-05-25T04:28:38.676864Z","epoch_age_seconds":73124,"freshness":"FRESH","line1":"1 62276U 24237K   26145.18655876  .00297898  00000+0  22342-2 0  9992","line2":"2 62276  42.9982 315.4746 0000834 327.9897  32.0919 15.70931325 85080","mean_motion":15.70931325,"eccentricity":8.34e-5,"inclination_deg":42.9982,"raan_deg":315.4746,"arg_perigee_deg":327.9897,"mean_anomaly_deg":32.0919,"bstar":0.0022342,"rev_number":8508,"period_min":91.665369267495,"perigee_km":355.67240372666,"apogee_km":356.79569681785,"semimajor_km":6734.3710502723,"source":"CELESTRAK","updated_at":"2026-05-25T13:38:19.643697Z"}}}